Location: Asheville, NC
(35.6000°N, 82.5500°W)
Time: 10:46:14

XW-2B - Pass Details

Date: 13 March 2018
Orbit: 511 x 530 km, 97.5° (Epoch: 21 March)

Event Time Altitude Azimuth Distance (km) Brightness Sun altitude
Rises 19:55:41 0° 211° (SSW) 2,603 ? -4.8°
Reaches altitude 10° 19:58:53 10° 242° (WSW) 1,726 ? -5.5°
Maximum altitude 20:00:27 12° 267° (W) 1,588 ? -5.8°
Drops below altitude 10° 20:02:03 10° 292° (WNW) 1,734 ? -6.1°
Sets 20:05:18 0° 324° (NW) 2,630 ? -6.8°
